Time,TemperatureF,DewpointF,PressureIn,WindDirection,WindDirectionDegrees,WindSpeedMPH,WindSpeedGustMPH,Humidity,HourlyPrecipIn,Conditions,Clouds,dailyrainin,SoftwareType,DateUTC
2013-02-28 00:02:00,37.0,35.0,29.63,NNW,341,0.0,-999.0,94,-99.99,,,-99.99,,2013-02-28 05:02:00,
2013-02-28 00:11:00,37.0,35.0,29.63,NNW,341,0.0,-999.0,94,-99.99,,,-99.99,,2013-02-28 05:11:00,
2013-02-28 00:22:00,36.0,34.0,29.63,NNW,340,0.0,-999.0,94,-99.99,,,-99.99,,2013-02-28 05:22:00,
2013-02-28 00:32:00,36.0,34.0,29.62,NNW,340,0.0,-999.0,94,-99.99,,,-99.99,,2013-02-28 05:32:00,
2013-02-28 00:42:00,36.0,34.0,29.62,NNW,340,0.0,-999.0,94,-99.99,,,-99.99,,2013-02-28 05:42:00,
2013-02-28 00:52:00,36.0,34.0,29.63,North,349,0.0,-999.0,94,-99.99,,,-99.99,,2013-02-28 05:52:00,
2013-02-28 01:02:00,36.0,34.0,29.62,North,349,0.0,-999.0,94,-99.99,,,-99.99,,2013-02-28 06:02:00,
2013-02-28 01:11:00,36.0,34.0,29.62,North,349,0.0,-999.0,94,-99.99,,,-99.99,,2013-02-28 06:11:00,
2013-02-28 01:22:00,35.0,33.0,29.62,North,350,0.0,-999.0,94,-99.99,,,-99.99,,2013-02-28 06:22:00,
2013-02-28 01:32:00,35.0,33.0,29.61,North,349,0.0,-999.0,94,-99.99,,,-99.99,,2013-02-28 06:32:00,
2013-02-28 01:42:00,35.0,33.0,29.61,North,349,0.0,-999.0,94,-99.99,,,-99.99,,2013-02-28 06:42:00,
2013-02-28 01:52:00,35.0,33.0,29.60,North,350,0.0,-999.0,94,-99.99,,,-99.99,,2013-02-28 06:52:00,
2013-02-28 02:01:00,35.0,33.0,29.60,NNE,25,0.0,-999.0,94,-99.99,,,-99.99,,2013-02-28 07:01:00,
2013-02-28 02:11:00,35.0,33.0,29.60,NNE,25,0.0,-999.0,94,-99.99,,,-99.99,,2013-02-28 07:11:00,
2013-02-28 02:21:00,34.0,32.0,29.60,NNE,25,0.0,-999.0,94,-99.99,,,-99.99,,2013-02-28 07:21:00,
2013-02-28 02:32:00,34.0,32.0,29.60,NNE,25,0.0,-999.0,94,-99.99,,,-99.99,,2013-02-28 07:32:00,
2013-02-28 02:42:00,34.0,32.0,29.60,NNE,25,0.0,-999.0,94,-99.99,,,-99.99,,2013-02-28 07:42:00,
2013-02-28 02:51:00,34.0,32.0,29.61,NNE,25,0.0,-999.0,94,-99.99,,,-99.99,,2013-02-28 07:51:00,
2013-02-28 03:01:00,33.0,31.0,29.61,NNE,24,0.0,-999.0,94,-99.99,,,-99.99,,2013-02-28 08:01:00,
2013-02-28 03:11:00,33.0,31.0,29.61,NNE,24,0.0,-999.0,94,-99.99,,,-99.99,,2013-02-28 08:11:00,
2013-02-28 03:22:00,33.0,31.0,29.60,NNE,24,0.0,-999.0,94,-99.99,,,-99.99,,2013-02-28 08:22:00,
2013-02-28 03:32:00,33.0,31.0,29.61,NNE,25,0.0,-999.0,94,-99.99,,,-99.99,,2013-02-28 08:32:00,
2013-02-28 03:42:00,33.0,31.0,29.61,NNE,25,0.0,-999.0,94,-99.99,,,-99.99,,2013-02-28 08:42:00,
2013-02-28 03:52:00,33.0,31.0,29.61,NNE,25,0.0,-999.0,94,-99.99,,,-99.99,,2013-02-28 08:52:00,
2013-02-28 04:03:00,33.0,31.0,29.60,NNE,25,0.0,-999.0,94,-99.99,,,-99.99,,2013-02-28 09:03:00,
2013-02-28 04:12:00,33.0,31.0,29.60,NNE,25,0.0,-999.0,94,-99.99,,,-99.99,,2013-02-28 09:12:00,
2013-02-28 04:22:00,33.0,31.0,29.61,NNE,24,0.0,-999.0,94,-99.99,,,-99.99,,2013-02-28 09:22:00,
2013-02-28 04:32:00,33.0,31.0,29.62,NNE,25,0.0,-999.0,94,-99.99,,,-99.99,,2013-02-28 09:32:00,
2013-02-28 04:42:00,33.0,31.0,29.62,NNE,25,0.0,-999.0,94,-99.99,,,-99.99,,2013-02-28 09:42:00,
2013-02-28 04:52:00,33.0,31.0,29.62,NNE,25,0.0,-999.0,94,-99.99,,,-99.99,,2013-02-28 09:52:00,
2013-02-28 05:02:00,33.0,31.0,29.62,NNE,25,0.0,-999.0,94,-99.99,,,-99.99,,2013-02-28 10:02:00,
2013-02-28 05:12:00,33.0,31.0,29.62,NNE,25,0.0,-999.0,94,-99.99,,,-99.99,,2013-02-28 10:12:00,
2013-02-28 05:22:00,33.0,31.0,29.62,NNE,25,0.0,-999.0,94,-99.99,,,-99.99,,2013-02-28 10:22:00,
2013-02-28 05:32:00,33.0,31.0,29.62,NNE,24,0.0,-999.0,94,-99.99,,,-99.99,,2013-02-28 10:32:00,
2013-02-28 05:42:00,33.0,31.0,29.62,NNE,24,0.0,-999.0,94,-99.99,,,-99.99,,2013-02-28 10:42:00,
2013-02-28 05:52:00,33.0,31.0,29.62,NNE,25,0.0,-999.0,94,-99.99,,,-99.99,,2013-02-28 10:52:00,
2013-02-28 06:02:00,33.0,31.0,29.62,NNE,25,0.0,-999.0,94,-99.99,,,-99.99,,2013-02-28 11:02:00,
2013-02-28 06:11:00,33.0,31.0,29.62,NNE,25,0.0,-999.0,94,-99.99,,,-99.99,,2013-02-28 11:11:00,
2013-02-28 06:22:00,33.0,31.0,29.61,NNE,25,0.0,-999.0,94,-99.99,,,-99.99,,2013-02-28 11:22:00,
2013-02-28 06:32:00,33.0,31.0,29.61,NNE,24,0.0,-999.0,94,-99.99,,,-99.99,,2013-02-28 11:32:00,
2013-02-28 06:42:00,33.0,31.0,29.61,NNE,24,0.0,-999.0,94,-99.99,,,-99.99,,2013-02-28 11:42:00,
2013-02-28 06:52:00,33.0,31.0,29.61,NNE,25,0.0,-999.0,94,-99.99,,,-99.99,,2013-02-28 11:52:00,
2013-02-28 07:02:00,33.0,31.0,29.61,NNE,25,0.0,-999.0,94,-99.99,,,-99.99,,2013-02-28 12:02:00,
2013-02-28 07:12:00,33.0,31.0,29.61,NNE,25,0.0,-999.0,94,-99.99,,,-99.99,,2013-02-28 12:12:00,
2013-02-28 07:22:00,33.0,31.0,29.61,NNE,24,0.0,-999.0,94,-99.99,,,-99.99,,2013-02-28 12:22:00,
2013-02-28 07:32:00,33.0,31.0,29.62,NNE,25,0.0,-999.0,94,-99.99,,,-99.99,,2013-02-28 12:32:00,
2013-02-28 07:42:00,33.0,31.0,29.62,NNE,25,0.0,-999.0,94,-99.99,,,-99.99,,2013-02-28 12:42:00,
2013-02-28 07:52:00,33.0,31.0,29.62,NNE,25,0.0,-999.0,94,-99.99,,,-99.99,,2013-02-28 12:52:00,
2013-02-28 08:02:00,33.0,31.0,29.62,NNE,24,0.0,-999.0,94,-99.99,,,-99.99,,2013-02-28 13:02:00,
2013-02-28 08:12:00,34.0,32.0,29.62,NNE,24,0.0,-999.0,94,-99.99,,,-99.99,,2013-02-28 13:12:00,
2013-02-28 08:22:00,34.0,32.0,29.62,NNE,24,0.0,-999.0,94,-99.99,,,-99.99,,2013-02-28 13:22:00,
2013-02-28 08:32:00,34.0,32.0,29.62,NNE,24,0.0,-999.0,94,-99.99,,,-99.99,,2013-02-28 13:32:00,
2013-02-28 08:42:00,34.0,32.0,29.62,NNE,24,0.0,-999.0,94,-99.99,,,-99.99,,2013-02-28 13:42:00,
2013-02-28 08:52:00,34.0,32.0,29.62,NNE,24,0.0,-999.0,94,-99.99,,,-99.99,,2013-02-28 13:52:00,
2013-02-28 09:02:00,34.0,32.0,29.62,NNE,25,0.0,-999.0,94,-99.99,,,-99.99,,2013-02-28 14:02:00,
2013-02-28 09:12:00,35.0,33.0,29.63,NNE,25,0.0,-999.0,94,-99.99,,,-99.99,,2013-02-28 14:12:00,
2013-02-28 09:22:00,35.0,33.0,29.63,NNE,25,0.0,-999.0,94,-99.99,,,-99.99,,2013-02-28 14:22:00,
2013-02-28 09:32:00,35.0,33.0,29.62,NNE,24,0.0,-999.0,94,-99.99,,,-99.99,,2013-02-28 14:32:00,
2013-02-28 09:42:00,35.0,33.0,29.62,NNE,24,0.0,-999.0,94,-99.99,,,-99.99,,2013-02-28 14:42:00,
2013-02-28 09:52:00,35.0,33.0,29.62,NNE,24,0.0,-999.0,94,-99.99,,,-99.99,,2013-02-28 14:52:00,
2013-02-28 10:02:00,36.0,34.0,29.62,NNE,25,0.0,-999.0,94,-99.99,,,-99.99,,2013-02-28 15:02:00,
2013-02-28 10:11:00,36.0,34.0,29.62,NNE,25,0.0,-999.0,94,-99.99,,,-99.99,,2013-02-28 15:11:00,
2013-02-28 10:22:00,37.0,35.0,29.61,NNE,25,0.0,-999.0,94,-99.99,,,-99.99,,2013-02-28 15:22:00,
2013-02-28 10:32:00,39.0,37.0,29.62,West,274,0.0,-999.0,94,-99.99,,,-99.99,,2013-02-28 15:32:00,
2013-02-28 10:42:00,39.0,37.0,29.62,West,274,0.0,-999.0,94,-99.99,,,-99.99,,2013-02-28 15:42:00,
2013-02-28 10:52:00,39.0,37.0,29.61,West,275,0.0,-999.0,94,-99.99,,,-99.99,,2013-02-28 15:52:00,
2013-02-28 11:02:00,41.0,39.0,29.60,WSW,252,1.0,-999.0,94,-99.99,,,-99.99,,2013-02-28 16:02:00,
2013-02-28 11:12:00,41.0,39.0,29.60,WSW,252,1.0,-999.0,94,-99.99,,,-99.99,,2013-02-28 16:12:00,
2013-02-28 11:22:00,40.0,38.0,29.60,WSW,251,1.0,-999.0,94,-99.99,,,-99.99,,2013-02-28 16:22:00,
2013-02-28 11:32:00,41.0,39.0,29.59,NW,307,1.0,-999.0,94,-99.99,,,-99.99,,2013-02-28 16:32:00,
2013-02-28 11:42:00,41.0,39.0,29.59,NW,307,1.0,-999.0,94,-99.99,,,-99.99,,2013-02-28 16:42:00,
2013-02-28 11:52:00,43.0,41.0,29.59,NW,312,1.0,-999.0,91,-99.99,,,-99.99,,2013-02-28 16:52:00,
2013-02-28 12:02:00,44.0,39.0,29.59,NNW,339,1.0,-999.0,81,-99.99,,,-99.99,,2013-02-28 17:02:00,
2013-02-28 12:12:00,46.0,39.0,29.58,WSW,244,0.0,-999.0,76,-99.99,,,-99.99,,2013-02-28 17:12:00,
2013-02-28 12:22:00,46.0,39.0,29.58,WSW,244,0.0,-999.0,76,-99.99,,,-99.99,,2013-02-28 17:22:00,
2013-02-28 12:32:00,46.0,38.0,29.57,NW,314,0.0,-999.0,74,-99.99,,,-99.99,,2013-02-28 17:32:00,
2013-02-28 12:42:00,46.0,38.0,29.57,NW,314,0.0,-999.0,74,-99.99,,,-99.99,,2013-02-28 17:42:00,
2013-02-28 12:52:00,46.0,37.0,29.57,South,181,0.0,-999.0,71,-99.99,,,-99.99,,2013-02-28 17:52:00,
2013-02-28 13:02:00,46.0,36.0,29.55,NW,312,1.0,-999.0,68,-99.99,,,-99.99,,2013-02-28 18:02:00,
2013-02-28 13:12:00,46.0,36.0,29.55,West,262,0.0,-999.0,69,-99.99,,,-99.99,,2013-02-28 18:12:00,
2013-02-28 13:22:00,46.0,36.0,29.55,West,262,0.0,-999.0,69,-99.99,,,-99.99,,2013-02-28 18:22:00,
2013-02-28 13:32:00,45.0,35.0,29.55,West,262,0.0,-999.0,67,-99.99,,,-99.99,,2013-02-28 18:32:00,
2013-02-28 13:42:00,45.0,35.0,29.55,West,262,0.0,-999.0,67,-99.99,,,-99.99,,2013-02-28 18:42:00,
2013-02-28 13:52:00,45.0,35.0,29.54,North,359,1.0,-999.0,68,-99.99,,,-99.99,,2013-02-28 18:52:00,
2013-02-28 14:02:00,47.0,34.0,29.54,WSW,250,1.0,-999.0,60,-99.99,,,-99.99,,2013-02-28 19:02:00,
2013-02-28 14:12:00,47.0,34.0,29.54,WSW,250,1.0,-999.0,60,-99.99,,,-99.99,,2013-02-28 19:12:00,
2013-02-28 14:22:00,46.0,35.0,29.55,West,268,0.0,-999.0,64,-99.99,,,-99.99,,2013-02-28 19:22:00,
2013-02-28 14:32:00,45.0,34.0,29.55,West,269,0.0,-999.0,65,-99.99,,,-99.99,,2013-02-28 19:32:00,
2013-02-28 14:42:00,45.0,34.0,29.55,West,269,0.0,-999.0,65,-99.99,,,-99.99,,2013-02-28 19:42:00,
2013-02-28 14:52:00,45.0,34.0,29.54,West,270,0.0,-999.0,64,-99.99,,,-99.99,,2013-02-28 19:52:00,
2013-02-28 15:01:00,45.0,34.0,29.55,West,270,0.0,-999.0,65,-99.99,,,-99.99,,2013-02-28 20:01:00,
2013-02-28 15:12:00,45.0,34.0,29.55,West,270,0.0,-999.0,65,-99.99,,,-99.99,,2013-02-28 20:12:00,
2013-02-28 15:22:00,45.0,33.0,29.55,West,267,0.0,-999.0,63,-99.99,,,-99.99,,2013-02-28 20:22:00,
2013-02-28 15:32:00,45.0,33.0,29.54,West,267,0.0,-999.0,63,-99.99,,,-99.99,,2013-02-28 20:32:00,
2013-02-28 15:42:00,45.0,33.0,29.54,West,267,0.0,-999.0,63,-99.99,,,-99.99,,2013-02-28 20:42:00,
2013-02-28 15:52:00,45.0,34.0,29.54,West,267,0.0,-999.0,64,-99.99,,,-99.99,,2013-02-28 20:52:00,
2013-02-28 16:02:00,45.0,34.0,29.54,West,268,0.0,-999.0,64,-99.99,,,-99.99,,2013-02-28 21:02:00,
2013-02-28 16:11:00,45.0,34.0,29.54,West,268,0.0,-999.0,64,-99.99,,,-99.99,,2013-02-28 21:11:00,
2013-02-28 16:22:00,44.0,33.0,29.54,North,359,0.0,-999.0,65,-99.99,,,-99.99,,2013-02-28 21:22:00,
2013-02-28 16:32:00,44.0,33.0,29.55,NNW,341,0.0,-999.0,66,-99.99,,,-99.99,,2013-02-28 21:32:00,
2013-02-28 16:42:00,44.0,33.0,29.55,NNW,341,0.0,-999.0,66,-99.99,,,-99.99,,2013-02-28 21:42:00,
2013-02-28 16:52:00,44.0,33.0,29.55,NNW,341,0.0,-999.0,66,-99.99,,,-99.99,,2013-02-28 21:52:00,
2013-02-28 17:01:00,43.0,34.0,29.54,NNE,18,0.0,-999.0,69,-99.99,,,-99.99,,2013-02-28 22:01:00,
2013-02-28 17:11:00,43.0,34.0,29.54,NNE,18,0.0,-999.0,69,-99.99,,,-99.99,,2013-02-28 22:11:00,
2013-02-28 17:22:00,43.0,34.0,29.54,NNE,14,1.0,-999.0,69,-99.99,,,-99.99,,2013-02-28 22:22:00,
2013-02-28 17:32:00,42.0,33.0,29.55,NNE,16,1.0,-999.0,71,-99.99,,,-99.99,,2013-02-28 22:32:00,
2013-02-28 17:42:00,42.0,33.0,29.55,NNE,16,1.0,-999.0,71,-99.99,,,-99.99,,2013-02-28 22:42:00,
2013-02-28 17:52:00,42.0,34.0,29.54,NNE,20,0.0,-999.0,73,-99.99,,,-99.99,,2013-02-28 22:52:00,
2013-02-28 18:02:00,41.0,34.0,29.54,NNE,18,0.0,-999.0,76,-99.99,,,-99.99,,2013-02-28 23:02:00,
2013-02-28 18:12:00,41.0,35.0,29.55,NNE,18,0.0,-999.0,78,-99.99,,,-99.99,,2013-02-28 23:12:00,
2013-02-28 18:22:00,41.0,35.0,29.55,NNE,18,0.0,-999.0,78,-99.99,,,-99.99,,2013-02-28 23:22:00,
2013-02-28 18:32:00,41.0,35.0,29.55,NNE,24,0.0,-999.0,80,-99.99,,,-99.99,,2013-02-28 23:32:00,
2013-02-28 18:42:00,41.0,35.0,29.55,NNE,24,0.0,-999.0,80,-99.99,,,-99.99,,2013-02-28 23:42:00,
2013-02-28 18:52:00,40.0,35.0,29.56,NNE,24,0.0,-999.0,82,-99.99,,,-99.99,,2013-02-28 23:52:00,
2013-02-28 19:02:00,40.0,35.0,29.56,NNE,24,0.0,-999.0,83,-99.99,,,-99.99,,2013-03-01 00:02:00,
2013-02-28 19:11:00,40.0,35.0,29.56,NNE,24,0.0,-999.0,83,-99.99,,,-99.99,,2013-03-01 00:11:00,
2013-02-28 19:22:00,39.0,35.0,29.57,NNE,24,0.0,-999.0,84,-99.99,,,-99.99,,2013-03-01 00:22:00,
2013-02-28 19:32:00,39.0,35.0,29.57,NNE,24,0.0,-999.0,85,-99.99,,,-99.99,,2013-03-01 00:32:00,
2013-02-28 19:42:00,39.0,35.0,29.57,NNE,24,0.0,-999.0,85,-99.99,,,-99.99,,2013-03-01 00:42:00,
2013-02-28 19:51:00,38.0,34.0,29.57,NNE,24,0.0,-999.0,86,-99.99,,,-99.99,,2013-03-01 00:51:00,
2013-02-28 20:01:00,38.0,34.0,29.57,NNE,24,0.0,-999.0,86,-99.99,,,-99.99,,2013-03-01 01:01:00,
2013-02-28 20:11:00,38.0,34.0,29.57,NNE,24,0.0,-999.0,87,-99.99,,,-99.99,,2013-03-01 01:11:00,
2013-02-28 20:22:00,38.0,34.0,29.57,NNE,24,0.0,-999.0,87,-99.99,,,-99.99,,2013-03-01 01:22:00,
2013-02-28 20:32:00,38.0,34.0,29.57,NNE,24,0.0,-999.0,87,-99.99,,,-99.99,,2013-03-01 01:32:00,
2013-02-28 20:42:00,38.0,34.0,29.57,NNE,24,0.0,-999.0,87,-99.99,,,-99.99,,2013-03-01 01:42:00,
2013-02-28 20:52:00,38.0,34.0,29.57,NNE,24,0.0,-999.0,87,-99.99,,,-99.99,,2013-03-01 01:52:00,
2013-02-28 21:01:00,37.0,34.0,29.57,WNW,302,0.0,-999.0,87,-99.99,,,-99.99,,2013-03-01 02:01:00,
2013-02-28 21:11:00,37.0,33.0,29.57,NW,312,0.0,-999.0,86,-99.99,,,-99.99,,2013-03-01 02:11:00,
2013-02-28 21:21:00,37.0,33.0,29.57,NW,312,0.0,-999.0,86,-99.99,,,-99.99,,2013-03-01 02:21:00,
2013-02-28 21:32:00,37.0,33.0,29.57,NW,312,0.0,-999.0,86,-99.99,,,-99.99,,2013-03-01 02:32:00,
2013-02-28 21:42:00,37.0,33.0,29.57,NW,312,0.0,-999.0,86,-99.99,,,-99.99,,2013-03-01 02:42:00,
2013-02-28 21:52:00,37.0,33.0,29.57,North,354,0.0,-999.0,85,-99.99,,,-99.99,,2013-03-01 02:52:00,
2013-02-28 22:02:00,37.0,33.0,29.57,NNW,347,0.0,-999.0,85,-99.99,,,-99.99,,2013-03-01 03:02:00,
2013-02-28 22:12:00,37.0,33.0,29.57,North,359,1.0,-999.0,85,-99.99,,,-99.99,,2013-03-01 03:12:00,
2013-02-28 22:22:00,37.0,33.0,29.57,North,359,1.0,-999.0,85,-99.99,,,-99.99,,2013-03-01 03:22:00,
2013-02-28 22:32:00,37.0,33.0,29.57,NNW,345,3.0,-999.0,84,-99.99,,,-99.99,,2013-03-01 03:32:00,
2013-02-28 22:42:00,37.0,33.0,29.57,NNW,345,3.0,-999.0,84,-99.99,,,-99.99,,2013-03-01 03:42:00,
2013-02-28 22:52:00,37.0,33.0,29.57,North,10,1.0,-999.0,84,-99.99,,,-99.99,,2013-03-01 03:52:00,
2013-02-28 23:01:00,37.0,33.0,29.57,NNW,347,0.0,-999.0,85,-99.99,,,-99.99,,2013-03-01 04:01:00,
2013-02-28 23:12:00,37.0,33.0,29.57,NNW,347,0.0,-999.0,85,-99.99,,,-99.99,,2013-03-01 04:12:00,
2013-02-28 23:22:00,37.0,33.0,29.57,NNE,13,2.0,-999.0,85,-99.99,,,-99.99,,2013-03-01 04:22:00,
2013-02-28 23:32:00,37.0,33.0,29.57,North,359,1.0,-999.0,85,-99.99,,,-99.99,,2013-03-01 04:32:00,
2013-02-28 23:42:00,37.0,33.0,29.57,North,359,1.0,-999.0,85,-99.99,,,-99.99,,2013-03-01 04:42:00,
2013-02-28 23:52:00,36.0,32.0,29.57,NNW,338,1.0,-999.0,85,-99.99,,,-99.99,,2013-03-01 04:52:00,